GW0835 Weather Reports


time (UTC)temp
F
wind
direction
speed
knots
gust
knots
rain 1hr
in
rain 24hr
in
rain mn
in
humidity
%
barometer
mb
20260505090055 75 222 5.2 9.6 0.00 0.00 0.00 36 1010.5
20260505084554 74 0 1.7 7.0 0.00 0.00 0.00 42 1010.6
20260505083101 72 194 0.0 4.3 0.00 0.00 0.00 43 1010.8
20260505081558 71 237 3.5 6.1 0.00 0.00 0.00 44 1011.0
20260505080057 70 221 2.6 5.2 0.00 0.00 0.00 42 1010.9
20260505074553 69 212 1.7 6.1 0.00 0.00 0.00 45 1011.0
20260505073056 68 243 3.5 7.0 0.00 0.00 0.00 46 1011.0
20260505071550 67 238 4.3 8.7 0.00 0.00 0.00 46 1011.2
20260505070053 66 212 4.3 8.7 0.00 0.00 0.00 48 1011.2
20260505064600 65 221 3.5 7.0 0.00 0.00 0.00 51 1011.3
20260505063059 64 238 3.5 6.1 0.00 0.00 0.00 53 1011.5
20260505061549 62 211 2.6 6.1 0.00 0.00 0.00 57 1011.5
20260505060053 62 250 1.7 3.5 0.00 0.00 0.00 58 1011.5
20260505054559 61 243 2.6 6.1 0.00 0.00 0.00 58 1011.4
20260505053105 61 244 1.7 3.5 0.00 0.00 0.00 60 1011.5
20260505051552 60 220 0.9 2.6 0.00 0.00 0.00 65 1011.6
20260505041612 54 0 0.0 0.0 0.00 0.00 0.00 72 1011.3
20260505040059 54 0 0.0 0.0 0.00 0.00 0.00 70 1011.3
20260505034558 54 0 0.0 1.7 0.00 0.00 0.00 70 1011.3
20260505033053 52 0 0.0 2.6 0.00 0.00 0.00 72 1011.2
20260505031606 49 0 0.9 1.7 0.00 0.00 0.00 77 1011.2
20260505030051 48 209 0.0 1.7 0.00 0.00 0.00 78 1011.3
20260505024552 49 0 0.0 1.7 0.00 0.00 0.00 77 1011.2
20260505023057 49 0 0.0 1.7 0.00 0.00 0.00 76 1011.3
20260505021555 50 0 0.9 1.7 0.00 0.00 0.00 74 1011.5
20260505020053 50 0 0.9 2.6 0.00 0.00 0.00 73 1011.5
20260505014549 51 80 0.9 2.6 0.00 0.00 0.00 73 1011.6
20260505013059 50 80 0.0 0.0 0.00 0.00 0.00 74 1011.7
20260505011556 51 0 0.0 0.0 0.00 0.00 0.00 73 1011.7
20260505010052 51 0 0.0 2.6 0.00 0.00 0.00 73 1011.6
20260505004549 51 80 0.9 2.6 0.00 0.00 0.00 73 1011.7
20260505003055 52 80 0.9 1.7 0.00 0.00 0.00 73 1011.7
20260505001554 53 80 0.9 1.7 0.00 0.00 0.00 72 1011.8
20260505000058 53 0 0.0 1.7 0.00 0.00 0.00 70 1012.0
20260504234602 54 80 0.9 1.7 0.00 0.00 0.00 68 1012.1
20260504233054 55 158 0.9 1.7 0.00 0.00 0.00 67 1012.2
20260504231559 55 0 0.0 4.3 0.00 0.00 0.00 65 1012.4
20260504230058 54 155 2.6 5.2 0.00 0.00 0.00 67 1012.4
20260504224551 53 316 1.7 7.0 0.00 0.00 0.00 69 1012.4
20260504223054 55 72 0.9 2.6 0.00 0.00 0.00 67 1012.1
20260504221559 55 72 0.9 1.7 0.00 0.00 0.00 65 1012.1
20260504220050 56 72 0.9 2.6 0.00 0.00 0.00 63 1012.1
20260504214548 55 69 1.7 2.6 0.00 0.00 0.00 65 1012.2
20260504213051 55 175 1.7 2.6 0.00 0.00 0.00 65 1012.3
20260504211553 56 175 0.0 2.6 0.00 0.00 0.00 65 1012.2
20260504210107 56 175 0.9 2.6 0.00 0.00 0.00 63 1012.4
20260504204559 57 175 0.9 2.6 0.00 0.00 0.00 63 1012.3
20260504203050 57 175 0.9 2.6 0.00 0.00 0.00 64 1012.3
20260504201556 58 175 0.9 1.7 0.00 0.00 0.00 63 1012.2
20260504200057 59 0 0.0 0.0 0.00 0.00 0.00 60 1012.2
20260504194606 61 0 0.9 1.7 0.00 0.00 0.00 58 1012.2
20260504193048 62 0 0.0 1.7 0.00 0.00 0.00 53 1012.2
20260504191551 64 0 0.0 0.0 0.00 0.00 0.00 51 1012.1
20260504190104 66 0 0.0 1.7 0.00 0.00 0.00 49 1012.1
20260504184556 68 0 0.0 1.7 0.00 0.00 0.00 43 1012.0
20260504183047 70 0 0.0 2.6 0.00 0.00 0.00 38 1011.9
20260504181553 71 0 0.9 1.7 0.00 0.00 0.00 38 1011.7
20260504180122 72 226 1.7 2.6 0.00 0.00 0.00 37 1011.7
20260504174556 74 231 1.7 4.3 0.00 0.00 0.00 35 1011.8
20260504173113 75 234 2.6 5.2 0.00 0.00 0.00 36 1011.7
20260504171556 76 244 3.5 6.1 0.00 0.00 0.00 35 1011.5
20260504140109 79 247 7.0 13.0 0.00 0.00 0.00 29 1012.3
20260504120112 78 198 9.6 17.4 0.00 0.00 0.00 32 1013.2